Helicity
128 124 80 43 50 90 191 107 60 50 33 29 26 27 4 20 -14 4 11 28 21 27 10 5 -12 5 -6 -21 -24 -5 5 13 7 1 8 7 8 1 1 2 -1 4 2 5
152 73 51 81 84 83 76 126 105 84 60 55 28 22 45 27 17 8 0 29 27 15 25 12 -6 6 -3 -2 -20 -12 -1 9 14 19 25 17 12 0 -6 -5 -12 -4 -3 -2
99 129 57 87 88 63 47 35 101 116 45 53 119 46 49 49 40 9 -2 -5 23 35 57 42 13 -4 9 -3 -14 -18 -4 3 14 32 29 32 16 35 11 -3 -13 -13 -10 -7
102 83 84 68 61 56 68 37 79 140 186 97 58 68 54 55 37 2 -2 -6 21 39 43 68 65 31 13 22 -16 1 7 15 9 13 -3 -6 -3 -3 -4 -6 -4 -11 -9 -2
112 108 125 92 73 62 91 92 61 66 131 204 112 103 41 68 60 3 -36 -9 -2 28 53 69 86 75 44 72 54 24 33 37 32 0 20 7 7 -14 -10 -4 13 15 -15 1
85 72 129 63 79 108 71 75 103 78 96 122 110 112 91 47 40 35 9 0 17 17 44 58 70 66 65 73 72 65 81 62 28 -1 -15 16 -18 -7 -13 -11 8 0 -10 -11
21 57 42 108 116 70 93 85 176 145 163 106 99 122 91 48 52 62 48 11 29 32 45 60 71 79 69 81 85 91 98 90 5 -17 -13 -19 -18 -19 -3 -12 -9 3 -7 -10
130 71 9 42 85 88 87 122 224 210 172 100 97 114 71 33 133 38 46 59 45 48 43 56 67 88 88 83 90 92 116 101 91 8 25 70 -40 -29 -24 -31 -4 -8 0 -8
178 89 114 170 68 72 59 131 94 119 56 128 85 72 62 39 42 64 89 55 61 48 30 57 92 63 74 78 93 101 114 116 129 97 106 69 -37 -33 -48 -6 -18 -9 -4 7
162 129 92 165 170 84 157 67 144 142 210 153 129 118 85 87 92 76 47 70 75 57 36 47 60 64 60 64 69 66 68 84 118 114 91 77 -18 -23 -7 9 -7 -6 -10 -2
152 156 156 134 107 58 68 143 110 80 112 164 161 74 47 38 26 65 73 54 45 41 46 31 53 62 78 75 81 66 45 66 73 116 104 83 7 -15 24 -36 -19 -25 -18 -8
122 217 184 144 98 145 206 169 81 122 189 141 117 74 49 52 24 33 48 52 51 41 41 39 37 53 77 95 100 95 69 62 62 106 130 97 75 65 48 -31 -26 -15 -22 -18
89 136 167 118 130 118 156 155 153 92 65 74 151 154 98 13 78 32 38 56 50 67 39 33 37 52 33 73 80 97 92 88 91 79 82 79 61 53 18 -35 2 15 3 -28
95 116 152 266 227 297 233 256 221 251 188 134 80 75 34 45 67 53 90 114 105 98 75 47 49 51 39 51 78 89 76 87 106 120 75 84 90 70 42 64 66 55 68 55
70 87 102 126 177 230 277 283 230 237 272 218 88 73 65 38 29 64 40 78 141 157 80 43 32 36 49 70 60 83 59 87 75 167 132 117 105 108 98 89 82 71 68 59
46 72 96 125 153 158 198 182 164 157 189 209 230 215 49 37 104 82 66 52 97 141 135 117 60 38 35 39 78 92 86 86 100 152 163 157 135 154 148 143 113 104 81 79
48 72 73 129 87 151 201 159 134 85 77 91 121 155 168 96 62 43 33 -32 9 79 135 144 149 109 38 30 48 41 93 86 106 147 155 187 149 139 161 167 147 116 105 97
64 54 76 109 110 172 120 67 60 32 66 65 117 79 156 111 46 -13 70 62 55 31 73 104 126 124 104 73 46 52 71 85 131 151 142 159 191 150 134 149 159 136 112 112
35 57 84 75 90 92 129 128 259 264 65 89 137 122 132 150 159 3 -22 88 103 134 101 71 79 105 98 71 47 65 45 62 99 150 148 146 171 178 146 131 138 132 116 112
36 40 65 133 91 133 92 163 261 285 129 18 114 130 107 166 54 79 90 82 103 101 111 102 89 109 67 49 54 55 66 73 89 112 105 140 160 167 178 156 134 139 123 94
43 85 26 31 70 59 -9 89 169 146 115 179 142 99 76 159 253 164 244 99 74 61 143 138 139 91 86 31 27 62 90 77 64 60 61 116 124 142 143 143 125 120 104 89
-6 -23 56 27 38 47 -4 -19 115 197 315 139 271 120 156 141 260 403 381 233 158 96 154 231 220 170 111 19 22 106 154 105 74 67 77 137 122 85 100 111 90 74 71 67
-13 -85 -84 -71 -22 46 -8 44 41 145 233 288 252 263 275 312 332 430 450 428 338 217 214 367 282 269 345 167 133 120 94 99 111 107 66 54 38 1 32 44 56 59 45 29
8 -68 -80 -59 -16 14 68 63 50 131 214 332 330 359 362 409 362 402 449 466 481 438 402 415 411 503 478 526 447 256 203 131 160 98 62 32 35 38 46 53 44 49 57 58
128 101 29 42 103 49 111 124 132 232 138 206 263 290 312 392 349 389 429 464 485 488 500 613 550 573 596 562 568 577 355 301 234 153 109 104 126 98 96 102 96 70 65 51
82 51 52 57 52 44 38 125 196 137 137 101 145 281 230 370 360 369 411 434 376 419 458 579 636 641 608 484 457 511 588 304 232 235 218 181 174 149 152 113 102 114 119 145
Wind_Speed
28 39 40 45 52 59 51 60 63 51 42 42 51 45 21 25 8 10 21 36 44 51 57 50 46 30 48 57 74 79 77 69 71 69 67 63 62 57 53 49 46 45 44 42
36 61 44 54 53 58 60 55 58 63 51 50 58 51 34 30 31 29 21 37 39 48 50 56 57 41 55 60 78 82 81 75 74 68 66 63 61 57 54 51 50 47 46 45
48 47 47 50 59 60 63 64 53 60 55 59 70 67 60 39 41 31 15 29 34 42 46 54 57 70 50 60 79 84 85 79 76 69 67 63 61 52 55 54 53 50 49 47
62 59 48 55 63 59 71 58 67 63 64 69 63 77 59 55 46 36 23 27 34 42 46 48 52 62 77 62 77 88 85 82 80 79 76 74 70 65 61 58 53 51 52 50
53 55 62 59 61 61 72 60 62 70 76 74 70 75 78 45 53 42 27 26 33 42 45 52 54 57 53 44 71 85 81 80 81 85 81 77 74 68 63 61 52 54 52 51
63 50 58 68 64 54 58 66 67 67 77 98 88 78 81 56 45 42 31 27 28 42 42 43 44 45 39 42 59 70 63 81 88 89 89 82 78 73 69 67 61 59 56 53
59 67 64 60 64 62 59 61 72 75 84 109 83 93 90 72 58 70 50 32 30 34 34 36 43 45 42 43 40 42 53 41 72 95 92 87 83 79 74 69 67 62 60 56
63 69 64 59 70 65 72 73 81 92 82 97 87 108 113 93 68 63 70 51 46 39 28 39 46 43 42 39 41 51 48 45 41 70 93 67 84 84 79 73 69 67 63 60
61 70 51 57 66 75 68 93 88 95 79 97 88 92 87 83 89 60 62 59 40 36 27 43 41 46 43 42 40 48 61 59 45 42 61 55 90 88 78 79 75 72 67 63
52 76 60 59 64 79 86 76 91 100 106 108 89 91 98 79 81 81 73 59 54 46 37 27 38 43 45 43 36 42 59 69 65 63 74 76 96 94 90 81 80 75 71 69
53 62 60 58 73 82 80 104 89 94 96 110 105 90 74 83 93 80 77 67 48 40 36 28 29 37 42 38 36 39 53 55 62 57 67 80 100 98 85 87 85 80 76 73
51 64 81 83 65 66 75 81 103 102 113 115 98 94 40 62 78 71 78 71 74 61 46 43 37 29 37 41 41 41 52 50 50 51 54 54 71 80 73 93 89 84 81 78
47 60 84 84 79 81 89 88 91 99 107 115 115 107 63 51 55 68 71 81 68 69 66 59 48 37 38 40 41 41 46 45 45 51 47 49 46 49 40 94 91 83 83 80
50 68 77 88 58 57 74 80 78 94 113 114 111 93 91 76 55 49 53 55 63 64 69 58 53 46 32 35 37 40 43 43 42 45 49 49 45 44 43 58 63 51 45 42
55 77 74 78 78 73 82 93 97 102 102 116 100 99 85 86 82 70 63 54 57 57 61 65 60 55 43 32 33 38 43 48 44 45 46 48 50 48 51 47 43 39 39 40
51 76 71 84 78 82 91 96 101 104 104 105 105 100 85 61 68 67 66 61 59 56 54 56 61 62 59 38 34 36 38 42 44 43 43 48 55 54 54 50 43 39 36 45
55 62 70 84 70 71 96 100 101 107 101 101 120 101 76 73 72 70 64 65 62 60 60 59 59 60 66 59 40 36 39 39 41 46 44 45 46 52 53 47 44 38 38 44
53 57 67 76 67 89 73 76 80 107 100 97 96 100 95 79 68 56 56 61 64 64 65 65 67 68 69 65 48 39 42 42 41 46 47 44 42 44 50 50 45 41 42 41
42 51 60 71 72 75 66 52 58 63 101 82 90 91 92 85 76 69 54 57 63 66 69 70 72 75 72 73 62 39 34 36 42 43 44 41 39 42 46 51 49 44 39 43
24 40 55 60 66 81 49 55 53 58 87 68 76 80 85 82 96 75 59 58 62 65 67 71 75 79 77 77 73 46 35 36 42 42 41 40 39 40 42 46 48 44 43 45
10 37 64 69 72 68 49 52 54 81 70 53 57 63 67 71 61 58 53 52 54 57 63 65 71 76 82 78 71 54 40 38 40 35 35 39 40 42 42 45 46 44 44 49
50 44 37 65 74 81 42 47 58 60 57 50 53 51 56 54 49 46 44 45 47 48 47 51 56 65 65 65 64 60 48 46 38 34 31 34 38 39 39 41 43 43 43 46
40 42 45 46 51 45 49 58 60 61 65 57 55 53 52 52 47 40 39 39 37 39 40 43 44 47 51 56 59 59 59 55 43 37 31 27 31 35 33 34 36 38 39 44
32 31 38 38 47 52 51 48 49 58 59 53 52 53 50 49 43 38 37 35 35 34 34 37 38 38 39 39 46 58 58 60 47 42 35 30 34 38 39 36 40 46 48 51
29 28 33 35 36 44 43 42 44 38 44 43 43 45 43 43 40 38 36 35 34 32 31 31 30 32 33 31 35 40 52 57 51 44 38 31 33 39 41 43 45 53 58 55
29 20 18 22 30 29 32 38 37 32 39 35 31 40 38 39 40 38 35 32 32 31 30 30 27 25 28 27 28 32 33 40 47 44 36 33 33 35 41 40 45 48 49 53
Wind_Direction
254 251 248 256 255 255 264 254 251 253 256 253 249 254 258 256 257 246 138 147 155 161 162 159 161 169 158 161 175 190 200 210 199 192 195 198 190 191 187 191 184 171 178 181
259 256 260 260 259 257 258 258 252 247 250 251 247 252 255 251 254 247 148 149 153 159 163 165 166 168 165 166 179 190 200 210 207 209 209 207 202 199 197 193 183 173 172 180
256 274 257 260 257 256 255 254 256 251 252 250 247 249 248 250 251 247 220 154 155 158 163 168 170 175 170 170 181 189 202 210 212 215 212 212 209 221 212 205 186 179 181 184
263 261 269 254 255 254 254 256 253 254 253 249 245 246 248 244 245 242 228 172 165 164 165 168 172 175 181 176 183 207 212 216 215 209 201 196 202 207 205 204 207 206 184 185
267 263 256 257 259 254 255 258 255 252 251 251 247 248 243 233 242 239 204 191 175 170 170 171 174 176 179 227 227 219 223 223 220 209 208 210 207 201 203 202 225 211 199 192
268 273 264 257 257 261 256 255 255 255 250 246 242 246 244 243 231 239 229 210 195 175 175 176 177 177 185 227 232 231 232 226 219 211 200 212 201 202 203 202 218 211 203 195
267 264 262 262 255 250 248 244 246 247 243 243 244 245 241 246 246 244 249 229 217 187 186 183 181 180 183 190 205 222 232 217 185 206 209 197 199 200 209 210 206 217 208 203
270 264 256 252 252 248 244 241 243 245 246 246 245 243 237 243 250 246 245 245 242 238 207 186 183 184 185 192 211 229 227 225 200 183 218 235 195 203 203 201 214 211 215 208
272 263 274 261 253 248 246 241 245 251 254 249 247 247 249 244 241 247 246 243 238 236 213 186 186 185 184 187 197 224 233 233 221 210 235 236 201 201 199 215 214 215 216 220
277 266 271 261 261 252 249 249 241 243 244 242 246 245 242 241 240 241 244 245 244 245 245 219 189 187 187 187 212 223 233 234 233 234 234 234 207 209 214 226 217 219 217 217
280 269 264 269 252 248 246 242 245 244 243 241 242 247 250 243 239 243 242 241 241 242 245 235 210 193 188 197 210 217 232 232 234 231 235 233 216 215 233 210 219 217 218 221
277 272 261 259 258 256 253 249 238 240 237 240 246 243 256 251 243 243 241 240 242 246 248 250 245 217 191 190 195 207 230 230 230 229 231 232 237 235 240 214 217 223 219 217
277 270 260 258 257 255 250 246 244 244 243 238 238 238 255 255 253 243 244 240 243 244 247 249 249 238 192 191 192 200 222 226 227 230 225 227 224 231 211 210 225 232 229 214
279 267 260 252 267 260 247 243 243 241 238 237 239 242 242 242 249 250 249 246 243 244 245 246 247 245 220 200 206 209 217 220 220 225 229 230 219 209 205 241 245 248 251 255
274 263 262 261 262 262 254 246 243 241 242 238 240 240 244 240 244 250 247 255 248 250 247 245 245 245 244 228 219 220 225 229 224 224 225 229 231 232 236 237 238 240 246 252
275 263 265 260 262 259 255 249 244 242 241 242 241 243 245 246 251 252 252 253 249 250 250 250 247 246 245 240 220 210 219 222 217 220 215 232 235 235 236 237 234 234 234 251
268 267 260 257 262 260 252 246 244 240 240 240 236 239 247 247 249 252 253 250 252 252 252 252 250 249 245 248 239 208 211 223 220 226 225 226 232 236 236 233 232 222 231 248
270 266 263 257 261 249 254 254 252 241 240 241 243 238 244 248 254 254 257 255 255 255 255 254 251 249 246 245 247 241 235 225 222 231 230 230 225 231 237 237 232 230 238 242
261 265 263 252 252 253 256 258 253 246 234 239 241 242 243 245 248 250 264 262 259 258 258 256 252 249 248 244 248 237 224 213 221 222 224 219 214 225 234 237 238 237 235 244
190 257 258 253 249 241 253 257 267 253 236 242 243 242 242 243 238 244 264 265 265 262 263 260 254 251 250 244 243 236 215 212 210 205 212 225 226 225 228 236 238 239 242 246
201 255 246 248 247 248 261 262 264 231 236 253 248 245 243 240 245 253 262 267 270 269 269 266 260 253 247 243 242 237 222 204 201 212 220 231 230 231 233 237 239 239 242 248
156 162 255 249 241 237 264 261 247 246 258 261 251 248 241 243 246 256 266 273 276 276 278 274 266 256 248 242 238 235 229 241 233 222 217 231 231 229 231 235 238 241 242 246
151 158 167 180 236 259 258 258 262 254 255 257 248 248 244 241 244 258 267 276 286 286 282 283 273 261 252 243 238 237 238 237 236 222 219 219 218 222 226 226 232 236 239 244
163 151 171 210 240 250 248 261 268 257 248 253 248 244 242 241 248 257 267 277 287 292 294 288 275 262 254 254 247 241 240 235 229 222 221 215 224 232 237 238 241 243 244 246
129 136 144 205 249 238 257 275 262 263 242 250 246 244 244 245 249 257 266 279 284 284 290 294 279 264 260 258 252 252 238 228 225 223 225 221 230 234 238 241 245 244 245 247
333 359 173 280 315 283 279 282 269 261 241 245 256 245 249 251 252 258 266 278 278 278 286 284 277 269 263 259 255 254 247 228 218 221 220 225 229 232 236 236 243 248 251 255